SWA7316 KCOS-KDEN

Flight info

Callsign SWA7316
Flight time N/A
Altitude 13000
Route ADANE V389 LUFSE JEFEL
Aircraft B738/M-SDE2E3FGHIRWXY/LB1

Departure

Time 2026-04-26 19:17
Airport City of Colorado Springs Municipal Airport (KCOS)

Arrival

Time N/A
Airport Denver International Airport (KDEN)
Time Latitude Longitude Altitude Speed Heading
2026-04-26 18:49 38.79891 -104.70016 6193 ft 0 kts 269°
2026-04-26 19:06 38.79891 -104.70013 6193 ft 2 kts 269°
2026-04-26 19:07 38.79888 -104.69977 6193 ft 8 kts 351°
2026-04-26 19:07 38.79906 -104.69960 6193 ft 7 kts 52°
2026-04-26 19:07 38.79897 -104.69908 6191 ft 7 kts 143°
2026-04-26 19:07 38.79934 -104.69914 6193 ft 7 kts 323°
2026-04-26 19:08 38.79974 -104.69934 6193 ft 0 kts 343°
2026-04-26 19:09 38.79975 -104.69934 6193 ft 0 kts 343°
2026-04-26 19:12 38.79994 -104.69939 6193 ft 4 kts 358°
2026-04-26 19:12 38.80065 -104.69879 6193 ft 22 kts 61°
2026-04-26 19:12 38.80153 -104.69729 6192 ft 22 kts 11°
2026-04-26 19:12 38.80278 -104.69657 6193 ft 21 kts 70°
2026-04-26 19:13 38.80277 -104.69472 6193 ft 21 kts 92°
2026-04-26 19:13 38.80277 -104.69276 6193 ft 23 kts 93°
2026-04-26 19:13 38.80276 -104.69074 6193 ft 23 kts 90°
2026-04-26 19:13 38.80281 -104.68850 6193 ft 27 kts 77°
2026-04-26 19:14 38.80445 -104.68786 6193 ft 29 kts
2026-04-26 19:14 38.80672 -104.68784 6192 ft 36 kts
2026-04-26 19:14 38.80946 -104.68785 6192 ft 42 kts 360°
2026-04-26 19:14 38.81148 -104.68786 6193 ft 46 kts 360°
2026-04-26 19:15 38.81378 -104.68788 6193 ft 26 kts 359°
2026-04-26 19:15 38.81571 -104.68761 6193 ft 29 kts 38°
2026-04-26 19:15 38.81576 -104.68591 6196 ft 9 kts 144°
2026-04-26 19:15 38.81526 -104.68576 6195 ft 6 kts 191°
2026-04-26 19:16 38.81496 -104.68576 6195 ft 7 kts 179°
2026-04-26 19:16 38.81288 -104.68577 6195 ft 65 kts 181°
2026-04-26 19:16 38.80600 -104.68575 6191 ft 132 kts 180°
2026-04-26 19:16 38.79497 -104.68578 6349 ft 177 kts 180°
2026-04-26 19:17 38.78231 -104.68563 7193 ft 183 kts 175°
2026-04-26 19:17 38.77022 -104.68002 7868 ft 204 kts 144°
2026-04-26 19:17 38.76245 -104.66257 8004 ft 255 kts 105°
2026-04-26 19:17 38.76481 -104.63882 8433 ft 288 kts 68°
2026-04-26 19:18 38.77737 -104.61943 8993 ft 274 kts 33°
2026-04-26 19:18 38.79271 -104.60850 9523 ft 233 kts 30°
2026-04-26 19:18 38.80554 -104.59744 10044 ft 219 kts 38°
2026-04-26 19:18 38.81703 -104.58460 10645 ft 220 kts 45°
2026-04-26 19:19 38.82759 -104.57025 11211 ft 222 kts 50°
2026-04-26 19:19 38.83771 -104.55449 11586 ft 239 kts 53°
2026-04-26 19:19 38.84817 -104.53653 11662 ft 260 kts 55°
2026-04-26 19:19 38.85826 -104.51786 11914 ft 252 kts 57°
2026-04-26 19:20 38.86807 -104.49867 12262 ft 264 kts 59°
2026-04-26 19:20 38.87459 -104.48547 12497 ft 260 kts 59°
2026-04-26 19:20 38.88734 -104.45911 13013 ft 263 kts 59°
2026-04-26 19:20 38.89682 -104.43929 12960 ft 258 kts 59°
2026-04-26 19:21 38.90607 -104.41992 12989 ft 252 kts 58°
2026-04-26 19:21 38.91781 -104.40392 12899 ft 247 kts 22°
2026-04-26 19:21 38.93435 -104.39743 12819 ft 247 kts 359°
2026-04-26 19:21 38.95089 -104.39590 12891 ft 232 kts 353°
2026-04-26 19:22 38.96700 -104.39532 12909 ft 234 kts 352°
2026-04-26 19:22 38.98407 -104.39491 12976 ft 258 kts 353°
2026-04-26 19:22 39.00299 -104.39440 13035 ft 287 kts 354°
2026-04-26 19:22 39.02404 -104.39367 13032 ft 317 kts 355°
2026-04-26 19:23 39.04668 -104.39267 13008 ft 329 kts 356°
2026-04-26 19:23 39.06955 -104.39147 12995 ft 331 kts 356°
2026-04-26 19:23 39.09253 -104.39022 12969 ft 329 kts 356°
2026-04-26 19:23 39.11535 -104.38901 12970 ft 327 kts 356°
2026-04-26 19:24 39.13812 -104.38784 12942 ft 327 kts 356°
2026-04-26 19:24 39.16082 -104.38669 12932 ft 326 kts 356°
2026-04-26 19:24 39.20347 -104.39688 12808 ft 305 kts 329°
2026-04-26 19:25 39.22264 -104.40839 12505 ft 303 kts 328°
2026-04-26 19:25 39.23523 -104.41634 12183 ft 305 kts 327°
2026-04-26 19:25 39.26045 -104.43260 11679 ft 306 kts 327°
2026-04-26 19:25 39.27941 -104.44497 11345 ft 305 kts 327°
2026-04-26 19:26 39.29827 -104.45739 11027 ft 304 kts 327°
2026-04-26 19:26 39.31702 -104.46994 10709 ft 303 kts 327°
2026-04-26 19:26 39.33572 -104.48266 10333 ft 304 kts 328°
2026-04-26 19:26 39.35427 -104.49555 10053 ft 302 kts 328°
2026-04-26 19:27 39.37271 -104.50863 9936 ft 302 kts 327°
2026-04-26 19:27 39.39117 -104.52195 9916 ft 305 kts 327°
2026-04-26 19:27 39.40953 -104.53536 9931 ft 302 kts 327°
2026-04-26 19:27 39.42774 -104.54891 9768 ft 302 kts 327°
2026-04-26 19:28 39.44572 -104.56251 9578 ft 298 kts 327°
2026-04-26 19:28 39.46348 -104.57618 9289 ft 296 kts 327°
2026-04-26 19:28 39.48107 -104.58991 9007 ft 295 kts 327°
2026-04-26 19:28 39.49853 -104.60368 8694 ft 293 kts 327°
2026-04-26 19:29 39.51588 -104.61746 8416 ft 292 kts 327°
2026-04-26 19:29 39.53381 -104.63009 8077 ft 294 kts 339°
2026-04-26 19:29 39.55324 -104.63753 7974 ft 290 kts 350°
2026-04-26 19:29 39.57303 -104.64132 7977 ft 285 kts 345°
2026-04-26 19:30 39.59146 -104.65007 8008 ft 283 kts 337°
2026-04-26 19:30 39.61016 -104.65959 8006 ft 293 kts 343°
2026-04-26 19:30 39.63054 -104.66302 8022 ft 297 kts 358°
2026-04-26 19:30 39.64416 -104.66334 8010 ft 295 kts 360°
2026-04-26 19:31 39.67148 -104.66302 8010 ft 292 kts
2026-04-26 19:31 39.69170 -104.66223 8013 ft 291 kts
2026-04-26 19:31 39.71220 -104.66189 7774 ft 300 kts
2026-04-26 19:31 39.73331 -104.66168 7397 ft 305 kts
2026-04-26 19:32 39.75442 -104.66145 7007 ft 299 kts
2026-04-26 19:32 39.77468 -104.66120 6626 ft 284 kts
2026-04-26 19:32 39.79388 -104.66096 6241 ft 268 kts
2026-04-26 19:32 39.81207 -104.66075 5839 ft 254 kts
2026-04-26 19:33 39.82840 -104.66039 6076 ft 208 kts
2026-04-26 19:33 39.84131 -104.66000 6343 ft 169 kts
2026-04-26 19:33 39.85251 -104.65985 6008 ft 161 kts
2026-04-26 19:33 39.86320 -104.66009 5853 ft 148 kts 359°
2026-04-26 19:34 39.87371 -104.66054 5614 ft 156 kts 357°